Theta_e
293 288 286 291 291 290 286 285 285 288 292 290 290 291 294 298 294 292 294 297 298 296 300 299 297 297 297 296 295 294 293 293 293 292 290 290 290 289 287 287 288 287 287 286
289 286 292 292 291 291 289 288 287 291 293 289 290 290 294 294 296 298 297 296 297 298 300 295 294 294 295 295 294 293 293 292 293 293 293 291 290 286 289 288 288 287 287 286
290 291 295 292 290 289 288 287 288 288 289 288 286 287 288 292 295 297 296 297 298 299 300 297 293 292 293 293 292 292 293 292 293 293 290 285 285 284 284 285 285 286 286 285
289 293 292 290 289 291 287 291 290 287 284 283 285 282 285 289 291 293 294 297 297 298 299 297 292 291 291 293 292 292 292 292 292 291 289 288 289 287 288 287 285 284 285 285
288 288 288 288 291 291 290 289 288 286 283 282 281 281 285 288 287 291 294 295 296 298 294 293 292 294 293 291 291 291 291 292 291 290 290 289 288 289 284 283 284 284 284 284
288 289 290 290 290 290 289 287 285 283 282 279 283 283 283 284 288 290 294 295 296 298 296 293 292 291 289 288 290 290 289 290 289 289 289 288 288 284 283 284 284 283 283 283
284 286 288 290 286 287 287 285 278 275 274 278 284 280 288 289 290 291 293 294 295 296 291 291 291 290 288 287 288 289 289 289 288 288 288 288 288 285 285 284 285 283 283 282
281 282 286 289 289 286 286 286 281 273 278 282 281 279 285 291 293 293 293 294 292 291 292 292 290 291 290 289 288 289 288 288 288 288 288 288 287 286 286 284 285 284 284 283
282 283 287 288 288 289 283 282 288 281 273 273 282 285 289 288 290 291 291 290 290 290 291 291 289 289 288 287 288 288 288 289 288 288 288 287 287 286 286 284 284 284 283 282
288 284 290 285 286 285 286 287 281 280 275 274 280 279 285 287 290 289 289 289 289 290 289 290 290 289 288 288 288 288 289 289 288 287 287 287 286 285 285 281 282 282 281 281
289 287 288 285 283 285 283 283 283 283 282 280 278 282 288 287 287 288 288 290 290 289 291 291 291 291 289 288 287 288 288 288 287 286 287 286 285 284 284 282 282 280 280 280
291 288 283 286 287 286 286 286 287 282 281 280 282 283 294 294 294 293 294 291 291 291 292 292 291 292 290 289 288 288 288 287 288 287 286 285 284 283 283 282 281 280 280 279
293 287 283 283 287 289 283 287 287 286 286 282 280 282 295 295 295 295 292 294 296 292 292 292 292 291 292 291 289 288 288 288 288 287 285 284 283 282 283 282 281 280 279 278
296 289 287 282 286 288 285 285 285 285 281 282 283 285 289 292 293 295 296 296 296 294 292 292 295 294 293 291 290 289 288 288 287 285 284 284 283 283 283 282 280 280 279 277
294 286 287 288 290 290 289 289 289 287 287 282 285 285 290 292 294 295 297 296 295 292 293 294 292 294 294 292 290 290 290 288 287 285 284 284 283 283 282 280 279 279 278 277
290 284 286 285 287 286 285 288 288 289 288 288 288 287 294 296 297 295 296 297 296 295 296 296 293 291 290 292 292 288 289 287 285 285 284 284 282 281 280 279 278 277 276 275
283 283 282 279 284 283 279 285 286 287 290 289 284 289 290 289 291 293 293 288 288 289 290 289 290 292 290 291 289 287 287 286 283 284 284 282 281 279 278 278 276 275 275 274
280 281 281 277 280 272 283 291 291 288 290 290 286 283 283 282 284 288 287 286 286 288 288 289 289 290 290 291 290 287 282 281 283 284 282 280 279 278 276 276 275 275 274 274
284 282 277 275 274 279 284 285 282 282 282 280 280 280 280 280 281 286 285 285 286 288 288 288 288 289 289 288 286 285 281 281 281 281 281 280 279 278 275 275 275 275 274 273
280 280 276 273 270 270 274 277 280 281 278 280 279 279 278 279 272 276 283 285 286 288 288 287 288 289 288 287 282 279 278 277 278 279 279 278 278 278 276 276 275 275 274 273
265 267 269 272 271 274 276 278 280 272 271 281 279 279 278 276 278 282 283 284 286 287 287 288 288 286 287 283 280 280 277 276 276 275 274 275 276 277 276 276 274 273 273 272
268 268 268 266 262 267 279 277 271 275 281 281 280 279 278 279 280 280 282 283 282 282 283 285 285 285 286 285 280 280 278 275 274 274 274 273 274 274 274 273 272 272 271 270
266 271 270 270 269 277 279 278 280 283 277 277 277 277 277 276 277 278 278 278 278 279 280 282 282 283 285 286 280 280 283 273 272 273 274 273 273 272 272 271 270 270 270 270
272 275 270 270 274 275 277 279 280 279 277 278 277 275 275 275 274 275 275 275 275 276 278 278 279 280 281 284 285 283 283 276 275 274 273 272 272 270 271 271 271 271 270 270
272 273 271 271 275 276 276 277 277 277 278 276 275 274 274 273 272 273 272 272 273 273 273 274 274 273 274 278 283 286 285 277 275 274 272 272 272 270 270 271 271 271 272 272
275 273 271 269 276 275 276 278 277 274 273 273 272 272 272 272 271 271 270 271 271 270 271 270 270 270 272 273 274 277 282 277 276 273 272 271 271 269 270 269 269 275 274 275
Wind_Speed
3 5 10 22 15 7 2 6 7 9 10 5 11 16 19 23 9 12 16 20 18 17 24 12 11 13 14 13 16 18 19 18 15 11 10 7 11 7 5 6 9 9 7 7
2 10 20 7 5 10 12 17 20 15 17 7 16 23 19 11 21 21 19 20 20 19 20 8 8 9 14 17 18 19 20 20 17 13 11 7 8 3 7 7 8 9 9 8
17 9 13 11 7 7 14 14 19 17 6 6 10 19 12 14 17 21 15 19 17 22 22 12 10 10 10 15 19 20 21 21 18 14 9 4 5 3 3 5 6 8 8 8
9 10 12 9 8 14 19 13 13 9 4 13 4 27 6 8 13 11 15 17 19 23 18 13 9 9 13 16 14 17 18 19 17 17 15 14 12 10 9 8 5 6 9 9
11 5 7 10 22 11 18 4 6 3 4 6 3 7 3 8 8 12 12 16 17 18 13 13 11 14 11 12 15 16 17 17 16 17 17 13 12 9 4 5 10 9 7 9
11 2 6 11 6 10 3 4 3 5 1 12 11 10 3 7 10 7 10 14 15 18 12 10 7 7 7 7 12 14 17 16 16 17 16 18 19 11 8 9 10 9 7 7
3 7 4 5 4 2 3 6 4 4 1 15 9 8 21 8 8 11 14 14 13 14 7 7 8 9 10 13 13 12 15 17 15 19 19 20 18 15 16 13 11 11 9 8
2 17 10 7 11 10 12 12 10 9 13 21 7 13 13 12 12 12 10 13 9 7 7 9 8 9 11 13 13 14 15 15 17 19 20 16 16 11 11 13 10 10 11 10
6 17 3 3 3 8 3 7 11 3 2 2 9 16 9 5 8 9 11 12 13 10 9 9 7 7 8 9 14 17 15 15 16 16 14 15 14 14 14 11 11 10 8 8
4 12 11 2 3 0 7 3 2 1 5 9 14 7 16 7 9 8 10 12 10 7 3 2 6 8 7 7 9 12 16 21 17 15 15 14 15 14 12 9 13 11 9 11
4 6 22 7 9 13 2 5 6 3 5 14 16 17 8 10 4 8 8 8 10 6 7 7 8 8 8 8 10 13 14 15 13 14 15 15 15 14 13 12 13 13 13 14
3 2 6 20 6 5 5 15 14 12 15 7 10 14 27 24 19 15 19 7 7 6 9 8 8 8 8 11 11 16 14 15 18 16 15 17 13 14 15 15 15 14 15 14
7 4 6 5 9 10 10 13 13 9 14 22 21 20 27 27 25 20 11 13 17 13 12 9 7 9 11 13 13 14 14 19 15 13 15 13 14 15 18 16 15 16 15 15
7 10 17 21 19 3 6 9 9 15 16 20 21 26 28 31 29 30 19 18 18 12 9 9 12 11 9 10 12 13 15 15 13 13 15 17 17 19 18 15 15 16 16 16
9 19 18 22 27 27 28 28 29 29 28 26 26 29 27 30 33 30 24 18 15 9 11 13 10 12 12 11 12 12 14 13 15 16 17 20 17 14 13 14 15 15 15 15
8 9 15 23 21 23 29 31 34 34 31 31 30 30 26 32 29 25 28 26 21 11 11 13 11 12 12 14 14 10 13 12 13 16 19 16 14 15 16 15 15 15 15 14
11 12 18 25 9 24 19 22 30 33 28 29 28 28 17 17 20 23 16 20 19 19 17 18 19 19 15 15 14 11 12 9 13 17 14 13 13 15 15 15 15 16 16 14
20 23 16 22 21 29 17 9 19 31 32 25 13 15 17 19 20 10 20 23 22 18 20 18 16 18 19 20 16 11 5 7 11 12 11 12 15 15 14 16 17 16 15 17
20 18 12 15 21 22 17 8 9 9 6 13 11 14 15 20 23 2 20 21 20 18 15 14 14 16 16 16 15 14 6 5 8 10 13 14 16 16 16 16 17 16 15 15
14 11 10 13 13 15 9 13 20 12 11 14 14 13 16 18 15 17 24 20 21 21 14 14 14 14 17 19 13 7 6 4 6 2 3 6 9 11 13 13 14 12 11 12
4 5 10 13 18 10 12 9 13 5 8 6 9 10 13 12 9 21 19 20 15 16 20 20 16 15 15 12 13 14 7 6 3 4 7 6 7 9 9 9 9 10 11 11
4 5 6 5 5 17 20 5 6 6 6 8 8 9 13 14 16 18 18 16 19 19 19 17 18 18 16 11 7 12 12 4 2 5 6 7 8 8 9 12 10 11 12 13
5 7 3 5 7 21 12 9 10 2 2 4 6 8 9 14 13 14 16 18 18 19 19 18 16 19 17 14 5 13 13 3 2 2 7 8 7 6 10 11 11 10 11 11
5 7 4 4 6 12 14 14 4 3 7 4 5 8 9 11 15 15 13 15 16 16 16 17 19 18 21 17 16 13 13 6 7 8 7 8 13 12 10 9 10 10 10 11
8 1 8 9 16 17 11 7 3 5 5 7 9 10 11 10 15 14 15 16 15 16 16 16 17 18 21 20 20 17 11 8 10 9 7 9 8 11 12 11 11 12 13 15
12 16 13 16 18 13 17 12 2 4 4 6 11 14 15 12 16 15 15 14 14 16 16 17 18 20 19 18 21 21 15 9 11 11 8 9 9 10 8 8 6 20 16 21
Wind_Direction
211 126 201 228 209 221 202 221 239 254 268 233 232 246 250 267 258 248 250 258 253 245 257 238 211 201 199 193 183 181 174 176 166 167 167 174 192 186 184 180 180 176 175 171
155 207 221 234 204 227 246 258 262 271 263 206 261 258 261 250 263 258 253 256 252 253 262 239 214 194 191 190 186 178 180 174 178 175 178 179 172 183 186 183 183 180 179 174
226 224 222 225 233 231 227 238 253 259 305 235 286 273 256 248 255 265 251 245 255 251 257 251 206 206 189 187 186 181 180 176 178 172 150 101 92 75 141 188 185 190 178 174
242 234 210 204 226 211 261 226 256 260 302 278 112 293 229 243 244 245 250 256 248 256 258 260 203 201 195 198 182 179 176 175 178 169 171 173 186 186 199 190 175 177 179 180
240 192 194 206 230 186 253 225 252 226 222 322 208 268 145 200 249 249 244 242 255 255 234 238 217 211 196 169 177 174 172 177 174 176 182 182 193 194 148 148 166 179 183 179
238 218 202 208 183 198 131 88 26 61 89 266 191 203 6 175 211 252 254 253 246 257 258 224 220 157 158 150 167 170 174 180 174 180 186 191 197 179 164 173 181 185 182 185
292 218 209 160 235 137 153 101 294 314 42 253 185 224 258 272 231 219 240 244 247 257 216 210 190 175 158 173 172 174 180 187 178 185 192 195 197 189 188 180 184 180 183 189
255 296 164 175 201 194 209 178 190 205 258 273 139 247 265 223 233 236 261 265 290 273 231 218 213 182 184 181 177 180 186 191 194 193 200 197 196 189 196 188 186 190 194 192
192 267 157 176 184 156 182 188 229 309 67 22 244 269 282 234 293 294 300 292 269 261 242 231 176 203 169 187 193 186 187 200 201 203 197 202 197 197 201 185 182 182 177 168
260 278 283 0 359 268 186 191 63 220 193 244 268 260 266 300 284 286 351 326 304 319 309 240 204 207 207 199 203 202 199 203 197 199 199 200 201 196 192 172 180 177 167 162
185 169 272 130 197 229 169 228 223 201 193 248 257 268 239 197 156 334 316 321 293 299 265 223 224 221 211 194 196 208 212 207 201 197 197 197 199 193 185 186 182 174 167 171
176 161 246 266 271 276 256 257 232 238 243 222 253 257 282 264 282 289 283 269 262 249 250 231 229 229 214 216 208 211 211 206 208 201 196 202 195 188 187 191 184 171 175 173
182 209 272 260 293 235 219 230 238 261 267 247 249 252 256 272 273 265 252 258 262 256 277 276 248 231 236 227 217 214 210 218 212 201 197 196 196 194 200 194 182 174 172 172
165 227 237 251 248 227 215 211 212 246 255 260 252 261 268 272 271 273 264 267 265 260 257 251 270 269 251 227 216 215 220 217 204 196 198 201 199 201 199 190 181 178 177 171
226 243 232 248 255 254 259 260 254 247 237 234 239 248 247 257 265 272 287 280 275 262 275 272 259 259 253 240 230 222 227 211 198 202 202 209 202 196 192 182 180 176 175 175
331 295 289 270 253 241 250 255 262 259 256 261 263 260 257 261 266 276 280 284 289 293 308 297 274 259 261 261 256 226 225 213 196 206 214 207 187 182 188 178 177 173 173 170
269 274 283 279 284 302 285 270 251 254 264 264 262 266 350 342 320 306 331 39 15 357 354 351 346 336 308 285 266 253 232 206 194 209 208 194 185 181 183 172 169 175 176 165
258 268 267 276 285 263 280 279 246 246 256 283 342 14 13 355 329 10 30 3 349 342 336 328 323 328 328 315 296 273 255 193 202 207 191 181 182 184 174 171 176 174 169 173
228 248 264 253 255 273 263 351 4 337 356 7 36 23 1 354 332 228 2 346 326 319 316 313 320 315 317 313 316 301 284 209 204 203 196 190 183 180 174 179 182 176 172 170
308 286 262 290 288 293 44 353 338 303 218 10 24 10 357 345 336 312 326 327 313 313 315 323 327 327 328 329 324 310 291 263 233 213 204 167 181 185 186 178 177 174 174 173
354 327 277 281 274 270 24 337 339 297 319 355 6 337 329 318 298 296 315 307 311 328 321 318 328 320 318 323 324 313 308 270 254 142 131 138 158 166 164 158 164 155 161 158
278 282 306 323 290 254 11 350 0 264 294 304 312 309 311 304 307 302 306 308 319 315 317 316 315 310 313 320 309 297 297 283 212 144 136 146 151 150 147 151 154 159 158 160
268 202 212 192 248 301 317 290 308 228 212 261 293 311 317 302 300 311 311 312 312 313 312 312 305 305 306 313 280 287 293 234 248 177 156 150 134 151 152 155 158 165 169 171
246 247 233 296 250 273 284 292 256 335 312 309 273 295 294 296 298 304 307 303 308 306 308 310 308 309 306 312 306 277 284 217 212 210 188 166 163 166 166 162 166 173 185 186
218 260 244 259 277 278 263 267 212 295 250 299 306 295 295 305 297 303 302 304 301 300 300 310 307 302 300 305 300 293 277 212 222 225 198 189 196 183 180 190 187 191 200 192
235 247 252 262 266 280 281 289 276 237 284 297 290 302 301 304 298 302 291 289 292 290 296 296 302 302 299 303 300 300 311 215 230 225 206 203 196 181 182 185 192 207 199 206